owner,sensor,date,latitude,longitude,vertical_datum,wind_speed,wind_to_direction,wind_speed_of_gust,qcFlag 
ADCP,ioos:station:wmo:42887:1,2011-08-01T00:00:00Z,28.1910,-88.4960,48.2,2.5,19.0,99.0,'11111222,11111222,11144222' 
ADCP,ioos:station:wmo:42887:1,2011-08-01T00:20:00Z,28.1910,-88.4960,48.2,3.2,14.0,99.0,'11111222,11111222,11144222' 
ADCP,ioos:station:wmo:42887:1,2011-08-01T00:40:00Z,28.1910,-88.4960,48.2,2.8,18.0,99.0,'11111222,11111222,11144222' 
ADCP,ioos:station:wmo:42887:1,2011-08-01T01:00:00Z,28.1910,-88.4960,48.2,2.6,20.0,99.0,'11111222,11111222,11144222' 
ADCP,ioos:station:wmo:42887:1,2011-08-01T01:20:00Z,28.1910,-88.4960,48.2,2.6,22.0,99.0,'11111222,11111222,11144222' 
ADCP,ioos:station:wmo:42887:1,2011-08-01T01:40:00Z,28.1910,-88.4960,48.2,1.4,14.0,99.0,'11111222,11111222,11144222' 
ADCP,ioos:station:wmo:42887:1,2011-08-01T02:00:00Z,28.1910,-88.4960,48.2,1.7,15.0,99.0,'11111222,11111222,11144222' 
ADCP,ioos:station:wmo:42887:1,2011-08-01T02:20:00Z,28.1910,-88.4960,48.2,0.0,309.0,99.0,'11111222,11111222,11144222' 
ADCP,ioos:station:wmo:42887:1,2011-08-01T02:40:00Z,28.1910,-88.4960,48.2,1.8,348.0,99.0,'11111222,11111222,11144222' 
ADCP,ioos:station:wmo:42887:1,2011-08-01T03:00:00Z,28.1910,-88.4960,48.2,1.4,348.0,99.0,'11111222,11111222,11144222' 
ADCP,ioos:station:wmo:42887:1,2011-08-01T03:20:00Z,28.1910,-88.4960,48.2,0.4,2.0,99.0,'11111222,11111222,11144222' 
ADCP,ioos:station:wmo:42887:1,2011-08-01T03:40:00Z,28.1910,-88.4960,48.2,1.2,291.0,99.0,'11111222,11111222,11144222' 
ADCP,ioos:station:wmo:42887:1,2011-08-01T04:00:00Z,28.1910,-88.4960,48.2,0.2,292.0,99.0,'11111222,11111222,11144222' 
ADCP,ioos:station:wmo:42887:1,2011-08-01T04:20:00Z,28.1910,-88.4960,48.2,1.4,321.0,99.0,'11111222,11111222,11144222' 
ADCP,ioos:station:wmo:42887:1,2011-08-01T05:00:00Z,28.1910,-88.4960,48.2,1.5,288.0,99.0,'11111222,11111222,11144222' 
ADCP,ioos:station:wmo:42887:1,2011-08-01T05:20:00Z,28.1910,-88.4960,48.2,0.2,284.0,99.0,'11111222,11111222,11144222' 
ADCP,ioos:station:wmo:42887:1,2011-08-01T05:40:00Z,28.1910,-88.4960,48.2,0.0,327.0,99.0,'11111222,11111222,11144222' 
ADCP,ioos:station:wmo:42887:1,2011-08-01T06:00:00Z,28.1910,-88.4960,48.2,0.3,290.0,99.0,'11111222,11111222,11144222' 
ADCP,ioos:station:wmo:42887:1,2011-08-01T06:20:00Z,28.1910,-88.4960,48.2,0.6,282.0,99.0,'11111222,11111222,11144222' 
ADCP,ioos:station:wmo:42887:1,2011-08-01T06:40:00Z,28.1910,-88.4960,48.2,1.1,258.0,99.0,'11111222,11111222,11144222' 
ADCP,ioos:station:wmo:42887:1,2011-08-01T07:00:00Z,28.1910,-88.4960,48.2,0.8,268.0,99.0,'11111222,11111222,11144222' 
ADCP,ioos:station:wmo:42887:1,2011-08-01T07:20:00Z,28.1910,-88.4960,48.2,2.1,289.0,99.0,'11111222,11111222,11144222' 
ADCP,ioos:station:wmo:42887:1,2011-08-01T08:00:00Z,28.1910,-88.4960,48.2,1.7,282.0,99.0,'11111222,11111222,11144222' 
ADCP,ioos:station:wmo:42887:1,2011-08-01T08:20:00Z,28.1910,-88.4960,48.2,1.0,289.0,99.0,'11111222,11111222,11144222' 
ADCP,ioos:station:wmo:42887:1,2011-08-01T08:40:00Z,28.1910,-88.4960,48.2,2.1,286.0,99.0,'11111222,11111222,11144222' 
ADCP,ioos:station:wmo:42887:1,2011-08-01T09:00:00Z,28.1910,-88.4960,48.2,3.0,309.0,99.0,'11111222,11111222,11144222' 
ADCP,ioos:station:wmo:42887:1,2011-08-01T09:20:00Z,28.1910,-88.4960,48.2,3.3,295.0,99.0,'11111222,11111222,11144222' 
ADCP,ioos:station:wmo:42887:1,2011-08-01T09:40:00Z,28.1910,-88.4960,48.2,2.8,297.0,99.0,'11111222,11111222,11144222' 
ADCP,ioos:station:wmo:42887:1,2011-08-01T10:00:00Z,28.1910,-88.4960,48.2,3.3,305.0,99.0,'11111222,11111222,11144222' 
ADCP,ioos:station:wmo:42887:1,2011-08-01T10:20:00Z,28.1910,-88.4960,48.2,2.6,288.0,99.0,'11111222,11111222,11144222' 
ADCP,ioos:station:wmo:42887:1,2011-08-01T11:00:00Z,28.1910,-88.4960,48.2,2.5,293.0,99.0,'11111222,11111222,11144222' 
ADCP,ioos:station:wmo:42887:1,2011-08-01T12:00:00Z,28.1910,-88.4960,48.2,3.0,294.0,99.0,'11111222,11111222,11144222' 
ADCP,ioos:station:wmo:42887:1,2011-08-01T12:20:00Z,28.1910,-88.4960,48.2,2.6,307.0,99.0,'11111222,11111222,11144222' 
ADCP,ioos:station:wmo:42887:1,2011-08-01T12:40:00Z,28.1910,-88.4960,48.2,2.9,291.0,99.0,'11111222,11111222,11144222' 
ADCP,ioos:station:wmo:42887:1,2011-08-01T13:00:00Z,28.1910,-88.4960,48.2,2.8,288.0,99.0,'11111222,11111222,11144222' 
ADCP,ioos:station:wmo:42887:1,2011-08-01T13:20:00Z,28.1910,-88.4960,48.2,4.3,312.0,99.0,'11111222,11111222,11144222' 
ADCP,ioos:station:wmo:42887:1,2011-08-01T13:40:00Z,28.1910,-88.4960,48.2,3.8,309.0,99.0,'11111222,11111222,11144222' 
ADCP,ioos:station:wmo:42887:1,2011-08-01T14:00:00Z,28.1910,-88.4960,48.2,3.7,339.0,99.0,'11111222,11111222,11144222' 
ADCP,ioos:station:wmo:42887:1,2011-08-01T14:20:00Z,28.1910,-88.4960,48.2,4.1,306.0,99.0,'11111222,11111222,11144222' 
ADCP,ioos:station:wmo:42887:1,2011-08-01T14:40:00Z,28.1910,-88.4960,48.2,4.1,314.0,99.0,'11111222,11111222,11144222' 
ADCP,ioos:station:wmo:42887:1,2011-08-01T15:00:00Z,28.1910,-88.4960,48.2,3.6,307.0,99.0,'11111222,11111222,11144222' 
ADCP,ioos:station:wmo:42887:1,2011-08-01T15:20:00Z,28.1910,-88.4960,48.2,3.4,345.0,99.0,'11111222,11111222,11144222' 
ADCP,ioos:station:wmo:42887:1,2011-08-01T15:40:00Z,28.1910,-88.4960,48.2,3.9,308.0,99.0,'11111222,11111222,11144222' 
ADCP,ioos:station:wmo:42887:1,2011-08-01T16:00:00Z,28.1910,-88.4960,48.2,3.5,313.0,99.0,'11111222,11111222,11144222' 
ADCP,ioos:station:wmo:42887:1,2011-08-01T16:20:00Z,28.1910,-88.4960,48.2,4.5,301.0,99.0,'11111222,11111222,11144222' 
ADCP,ioos:station:wmo:42887:1,2011-08-01T16:40:00Z,28.1910,-88.4960,48.2,5.0,314.0,99.0,'11111222,11111222,11144222' 
ADCP,ioos:station:wmo:42887:1,2011-08-01T17:00:00Z,28.1910,-88.4960,48.2,2.5,349.0,99.0,'11111222,11111222,11144222' 
ADCP,ioos:station:wmo:42887:1,2011-08-01T17:20:00Z,28.1910,-88.4960,48.2,4.6,322.0,99.0,'11111222,11111222,11144222' 
ADCP,ioos:station:wmo:42887:1,2011-08-01T17:40:00Z,28.1910,-88.4960,48.2,4.3,320.0,99.0,'11111222,11111222,11144222' 
ADCP,ioos:station:wmo:42887:1,2011-08-01T18:00:00Z,28.1910,-88.4960,48.2,4.7,339.0,99.0,'11111222,11111222,11144222' 
ADCP,ioos:station:wmo:42887:1,2011-08-01T18:20:00Z,28.1910,-88.4960,48.2,4.2,319.0,99.0,'11111222,11111222,11144222' 
ADCP,ioos:station:wmo:42887:1,2011-08-01T18:40:00Z,28.1910,-88.4960,48.2,2.4,351.0,99.0,'11111222,11111222,11144222' 
ADCP,ioos:station:wmo:42887:1,2011-08-01T19:00:00Z,28.1910,-88.4960,48.2,5.0,4.0,99.0,'11111222,11111222,11144222' 
ADCP,ioos:station:wmo:42887:1,2011-08-01T19:20:00Z,28.1910,-88.4960,48.2,4.3,2.0,99.0,'11111222,11111222,11144222' 
ADCP,ioos:station:wmo:42887:1,2011-08-01T19:40:00Z,28.1910,-88.4960,48.2,1.4,354.0,99.0,'11111222,11111222,11144222' 
ADCP,ioos:station:wmo:42887:1,2011-08-01T20:00:00Z,28.1910,-88.4960,48.2,3.7,305.0,99.0,'11111222,11111222,11144222' 
ADCP,ioos:station:wmo:42887:1,2011-08-01T20:20:00Z,28.1910,-88.4960,48.2,3.0,350.0,99.0,'11111222,11111222,11144222' 
ADCP,ioos:station:wmo:42887:1,2011-08-01T20:40:00Z,28.1910,-88.4960,48.2,3.3,342.0,99.0,'11111222,11111222,11144222' 
ADCP,ioos:station:wmo:42887:1,2011-08-01T21:00:00Z,28.1910,-88.4960,48.2,2.5,339.0,99.0,'11111222,11111222,11144222' 
ADCP,ioos:station:wmo:42887:1,2011-08-01T21:20:00Z,28.1910,-88.4960,48.2,2.9,326.0,99.0,'11111222,11111222,11144222' 
ADCP,ioos:station:wmo:42887:1,2011-08-01T21:40:00Z,28.1910,-88.4960,48.2,1.2,349.0,99.0,'11111222,11111222,11144222' 
ADCP,ioos:station:wmo:42887:1,2011-08-01T22:00:00Z,28.1910,-88.4960,48.2,1.4,299.0,99.0,'11111222,11111222,11144222' 
ADCP,ioos:station:wmo:42887:1,2011-08-01T22:40:00Z,28.1910,-88.4960,48.2,2.4,359.0,99.0,'11111222,11111222,11144222' 
ADCP,ioos:station:wmo:42887:1,2011-08-01T23:00:00Z,28.1910,-88.4960,48.2,4.1,315.0,99.0,'11111222,11111222,11144222' 
ADCP,ioos:station:wmo:42887:1,2011-08-01T23:20:00Z,28.1910,-88.4960,48.2,3.2,348.0,99.0,'11111222,11111222,11144222' 
ADCP,ioos:station:wmo:42887:1,2011-08-01T23:40:00Z,28.1910,-88.4960,48.2,2.5,289.0,99.0,'11111222,11111222,11144222' 
ADCP,ioos:station:wmo:42887:1,2011-08-02T00:00:00Z,28.1910,-88.4960,48.2,0.2,351.0,99.0,'11111222,11111222,11144222' 
ADCP,ioos:station:wmo:42887:1,2011-08-02T00:20:00Z,28.1910,-88.4960,48.2,0.0,344.0,99.0,'11111222,11111222,11144222' 
ADCP,ioos:station:wmo:42887:1,2011-08-02T00:40:00Z,28.1910,-88.4960,48.2,1.2,280.0,99.0,'11111222,11111222,11144222' 
ADCP,ioos:station:wmo:42887:1,2011-08-02T01:00:00Z,28.1910,-88.4960,48.2,0.2,47.0,99.0,'11111222,11111222,11144222' 
ADCP,ioos:station:wmo:42887:1,2011-08-02T01:20:00Z,28.1910,-88.4960,48.2,2.3,292.0,99.0,'11111222,11111222,11144222' 
ADCP,ioos:station:wmo:42887:1,2011-08-02T01:40:00Z,28.1910,-88.4960,48.2,3.7,287.0,99.0,'11111222,11111222,11144222' 
ADCP,ioos:station:wmo:42887:1,2011-08-02T02:00:00Z,28.1910,-88.4960,48.2,1.7,288.0,99.0,'11111222,11111222,11144222' 
ADCP,ioos:station:wmo:42887:1,2011-08-02T02:20:00Z,28.1910,-88.4960,48.2,3.4,281.0,99.0,'11111222,11111222,11144222' 
ADCP,ioos:station:wmo:42887:1,2011-08-02T03:00:00Z,28.1910,-88.4960,48.2,2.2,285.0,99.0,'11111222,11111222,11144222' 
ADCP,ioos:station:wmo:42887:1,2011-08-02T03:20:00Z,28.1910,-88.4960,48.2,1.3,269.0,99.0,'11111222,11111222,11144222' 
ADCP,ioos:station:wmo:42887:1,2011-08-02T04:20:00Z,28.1910,-88.4960,48.2,1.0,277.0,99.0,'11111222,11111222,11144222' 
ADCP,ioos:station:wmo:42887:1,2011-08-02T05:00:00Z,28.1910,-88.4960,48.2,1.3,281.0,99.0,'11111222,11111222,11144222' 
ADCP,ioos:station:wmo:42887:1,2011-08-02T05:20:00Z,28.1910,-88.4960,48.2,0.6,271.0,99.0,'11111222,11111222,11144222' 
ADCP,ioos:station:wmo:42887:1,2011-08-02T06:00:00Z,28.1910,-88.4960,48.2,1.2,270.0,99.0,'11111222,11111222,11144222' 
ADCP,ioos:station:wmo:42887:1,2011-08-02T06:20:00Z,28.1910,-88.4960,48.2,1.7,235.0,99.0,'11111222,11111222,11144222' 
ADCP,ioos:station:wmo:42887:1,2011-08-02T07:00:00Z,28.1910,-88.4960,48.2,1.9,268.0,99.0,'11111222,11111222,11144222' 
ADCP,ioos:station:wmo:42887:1,2011-08-02T07:20:00Z,28.1910,-88.4960,48.2,1.7,266.0,99.0,'11111222,11111222,11144222' 
ADCP,ioos:station:wmo:42887:1,2011-08-02T07:40:00Z,28.1910,-88.4960,48.2,1.0,270.0,99.0,'11111222,11111222,11144222' 
ADCP,ioos:station:wmo:42887:1,2011-08-02T08:00:00Z,28.1910,-88.4960,48.2,3.8,248.0,99.0,'11111222,11111222,11144222' 
ADCP,ioos:station:wmo:42887:1,2011-08-02T08:20:00Z,28.1910,-88.4960,48.2,1.3,287.0,99.0,'11111222,11111222,11144222' 
ADCP,ioos:station:wmo:42887:1,2011-08-02T08:40:00Z,28.1910,-88.4960,48.2,2.2,264.0,99.0,'11111222,11111222,11144222' 
ADCP,ioos:station:wmo:42887:1,2011-08-02T09:00:00Z,28.1910,-88.4960,48.2,1.3,277.0,99.0,'11111222,11111222,11144222' 
ADCP,ioos:station:wmo:42887:1,2011-08-02T09:20:00Z,28.1910,-88.4960,48.2,2.2,279.0,99.0,'11111222,11111222,11144222' 
ADCP,ioos:station:wmo:42887:1,2011-08-02T10:00:00Z,28.1910,-88.4960,48.2,3.6,273.0,99.0,'11111222,11111222,11144222' 
ADCP,ioos:station:wmo:42887:1,2011-08-02T10:20:00Z,28.1910,-88.4960,48.2,4.2,280.0,99.0,'11111222,11111222,11144222' 
ADCP,ioos:station:wmo:42887:1,2011-08-02T10:40:00Z,28.1910,-88.4960,48.2,5.2,287.0,99.0,'11111222,11111222,11144222' 
ADCP,ioos:station:wmo:42887:1,2011-08-02T11:00:00Z,28.1910,-88.4960,48.2,6.4,304.0,99.0,'11111222,11111222,11144222' 
ADCP,ioos:station:wmo:42887:1,2011-08-02T11:20:00Z,28.1910,-88.4960,48.2,6.5,298.0,99.0,'11111222,11111222,11144222' 
ADCP,ioos:station:wmo:42887:1,2011-08-02T12:00:00Z,28.1910,-88.4960,48.2,6.2,305.0,99.0,'11111222,11111222,11144222' 
ADCP,ioos:station:wmo:42887:1,2011-08-02T12:20:00Z,28.1910,-88.4960,48.2,6.2,307.0,99.0,'11111222,11111222,11144222' 
ADCP,ioos:station:wmo:42887:1,2011-08-02T12:40:00Z,28.1910,-88.4960,48.2,7.0,296.0,99.0,'11111222,11111222,11144222' 
ADCP,ioos:station:wmo:42887:1,2011-08-02T13:00:00Z,28.1910,-88.4960,48.2,6.0,300.0,99.0,'11111222,11111222,11144222' 
ADCP,ioos:station:wmo:42887:1,2011-08-02T13:20:00Z,28.1910,-88.4960,48.2,6.4,297.0,99.0,'11111222,11111222,11144222' 
ADCP,ioos:station:wmo:42887:1,2011-08-02T13:40:00Z,28.1910,-88.4960,48.2,5.1,315.0,99.0,'11111222,11111222,11144222' 
ADCP,ioos:station:wmo:42887:1,2011-08-02T14:00:00Z,28.1910,-88.4960,48.2,5.9,299.0,99.0,'11111222,11111222,11144222' 
ADCP,ioos:station:wmo:42887:1,2011-08-02T14:20:00Z,28.1910,-88.4960,48.2,4.8,305.0,99.0,'11111222,11111222,11144222' 
ADCP,ioos:station:wmo:42887:1,2011-08-02T14:40:00Z,28.1910,-88.4960,48.2,5.5,300.0,99.0,'11111222,11111222,11144222' 
ADCP,ioos:station:wmo:42887:1,2011-08-02T15:00:00Z,28.1910,-88.4960,48.2,4.4,298.0,99.0,'11111222,11111222,11144222' 
ADCP,ioos:station:wmo:42887:1,2011-08-02T15:20:00Z,28.1910,-88.4960,48.2,4.8,317.0,99.0,'11111222,11111222,11144222' 
ADCP,ioos:station:wmo:42887:1,2011-08-02T15:40:00Z,28.1910,-88.4960,48.2,5.6,303.0,99.0,'11111222,11111222,11144222' 
ADCP,ioos:station:wmo:42887:1,2011-08-02T16:00:00Z,28.1910,-88.4960,48.2,4.8,306.0,99.0,'11111222,11111222,11144222' 
ADCP,ioos:station:wmo:42887:1,2011-08-02T16:20:00Z,28.1910,-88.4960,48.2,5.1,308.0,99.0,'11111222,11111222,11144222' 
ADCP,ioos:station:wmo:42887:1,2011-08-02T16:40:00Z,28.1910,-88.4960,48.2,5.4,315.0,99.0,'11111222,11111222,11144222' 
ADCP,ioos:station:wmo:42887:1,2011-08-02T17:00:00Z,28.1910,-88.4960,48.2,5.9,316.0,99.0,'11111222,11111222,11144222' 
ADCP,ioos:station:wmo:42887:1,2011-08-02T17:20:00Z,28.1910,-88.4960,48.2,6.0,338.0,99.0,'11111222,11111222,11144222' 
ADCP,ioos:station:wmo:42887:1,2011-08-02T17:40:00Z,28.1910,-88.4960,48.2,5.4,346.0,99.0,'11111222,11111222,11144222' 
ADCP,ioos:station:wmo:42887:1,2011-08-02T18:00:00Z,28.1910,-88.4960,48.2,5.3,332.0,99.0,'11111222,11111222,11144222' 
ADCP,ioos:station:wmo:42887:1,2011-08-02T18:20:00Z,28.1910,-88.4960,48.2,5.3,341.0,99.0,'11111222,11111222,11144222' 
ADCP,ioos:station:wmo:42887:1,2011-08-02T19:00:00Z,28.1910,-88.4960,48.2,5.0,330.0,99.0,'11111222,11111222,11144222' 
ADCP,ioos:station:wmo:42887:1,2011-08-02T19:20:00Z,28.1910,-88.4960,48.2,5.2,308.0,99.0,'11111222,11111222,11144222' 
ADCP,ioos:station:wmo:42887:1,2011-08-02T19:40:00Z,28.1910,-88.4960,48.2,4.9,339.0,99.0,'11111222,11111222,11144222' 
ADCP,ioos:station:wmo:42887:1,2011-08-02T20:00:00Z,28.1910,-88.4960,48.2,5.2,314.0,99.0,'11111222,11111222,11144222' 
ADCP,ioos:station:wmo:42887:1,2011-08-02T20:20:00Z,28.1910,-88.4960,48.2,4.1,313.0,99.0,'11111222,11111222,11144222' 
ADCP,ioos:station:wmo:42887:1,2011-08-02T20:40:00Z,28.1910,-88.4960,48.2,3.3,308.0,99.0,'11111222,11111222,11144222' 
ADCP,ioos:station:wmo:42887:1,2011-08-02T21:00:00Z,28.1910,-88.4960,48.2,4.0,305.0,99.0,'11111222,11111222,11144222' 
ADCP,ioos:station:wmo:42887:1,2011-08-02T21:20:00Z,28.1910,-88.4960,48.2,4.1,306.0,99.0,'11111222,11111222,11144222' 
ADCP,ioos:station:wmo:42887:1,2011-08-02T22:00:00Z,28.1910,-88.4960,48.2,5.1,305.0,99.0,'11111222,11111222,11144222' 
ADCP,ioos:station:wmo:42887:1,2011-08-02T22:20:00Z,28.1910,-88.4960,48.2,3.4,299.0,99.0,'11111222,11111222,11144222' 
ADCP,ioos:station:wmo:42887:1,2011-08-02T22:40:00Z,28.1910,-88.4960,48.2,3.7,286.0,99.0,'11111222,11111222,11144222' 
ADCP,ioos:station:wmo:42887:1,2011-08-02T23:00:00Z,28.1910,-88.4960,48.2,4.7,298.0,99.0,'11111222,11111222,11144222' 
ADCP,ioos:station:wmo:42887:1,2011-08-02T23:20:00Z,28.1910,-88.4960,48.2,3.5,283.0,99.0,'11111222,11111222,11144222' 
ADCP,ioos:station:wmo:42887:1,2011-08-02T23:40:00Z,28.1910,-88.4960,48.2,3.9,284.0,99.0,'11111222,11111222,11144222' 
ADCP,ioos:station:wmo:42887:1,2011-08-03T00:00:00Z,28.1910,-88.4960,48.2,4.1,291.0,99.0,'11111222,11111222,11144222' 
ADCP,ioos:station:wmo:42887:1,2011-08-03T00:20:00Z,28.1910,-88.4960,48.2,3.4,275.0,99.0,'11111222,11111222,11144222' 
ADCP,ioos:station:wmo:42887:1,2011-08-03T00:40:00Z,28.1910,-88.4960,48.2,2.5,282.0,99.0,'11111222,11111222,11144222' 
ADCP,ioos:station:wmo:42887:1,2011-08-03T01:00:00Z,28.1910,-88.4960,48.2,3.4,280.0,99.0,'11111222,11111222,11144222' 
ADCP,ioos:station:wmo:42887:1,2011-08-03T01:20:00Z,28.1910,-88.4960,48.2,1.7,278.0,99.0,'11111222,11111222,11144222' 
ADCP,ioos:station:wmo:42887:1,2011-08-03T01:40:00Z,28.1910,-88.4960,48.2,3.7,279.0,99.0,'11111222,11111222,11144222' 
ADCP,ioos:station:wmo:42887:1,2011-08-03T02:00:00Z,28.1910,-88.4960,48.2,3.3,285.0,99.0,'11111222,11111222,11144222' 
ADCP,ioos:station:wmo:42887:1,2011-08-03T02:20:00Z,28.1910,-88.4960,48.2,1.8,262.0,99.0,'11111222,11111222,11144222' 
ADCP,ioos:station:wmo:42887:1,2011-08-03T02:40:00Z,28.1910,-88.4960,48.2,2.9,285.0,99.0,'11111222,11111222,11144222' 
ADCP,ioos:station:wmo:42887:1,2011-08-03T03:00:00Z,28.1910,-88.4960,48.2,4.6,297.0,99.0,'11111222,11111222,11144222' 
ADCP,ioos:station:wmo:42887:1,2011-08-03T03:20:00Z,28.1910,-88.4960,48.2,4.7,306.0,99.0,'11111222,11111222,11144222' 
ADCP,ioos:station:wmo:42887:1,2011-08-03T03:40:00Z,28.1910,-88.4960,48.2,4.5,302.0,99.0,'11111222,11111222,11144222' 
ADCP,ioos:station:wmo:42887:1,2011-08-03T04:00:00Z,28.1910,-88.4960,48.2,4.2,312.0,99.0,'11111222,11111222,11144222' 
ADCP,ioos:station:wmo:42887:1,2011-08-03T05:00:00Z,28.1910,-88.4960,48.2,4.9,297.0,99.0,'11111222,11111222,11144222' 
ADCP,ioos:station:wmo:42887:1,2011-08-03T05:20:00Z,28.1910,-88.4960,48.2,4.8,290.0,99.0,'11111222,11111222,11144222' 
ADCP,ioos:station:wmo:42887:1,2011-08-03T05:40:00Z,28.1910,-88.4960,48.2,4.4,295.0,99.0,'11111222,11111222,11144222' 
ADCP,ioos:station:wmo:42887:1,2011-08-03T06:00:00Z,28.1910,-88.4960,48.2,4.3,286.0,99.0,'11111222,11111222,11144222' 
ADCP,ioos:station:wmo:42887:1,2011-08-03T06:20:00Z,28.1910,-88.4960,48.2,4.4,287.0,99.0,'11111222,11111222,11144222' 
ADCP,ioos:station:wmo:42887:1,2011-08-03T07:00:00Z,28.1910,-88.4960,48.2,3.3,282.0,99.0,'11111222,11111222,11144222' 
ADCP,ioos:station:wmo:42887:1,2011-08-03T07:20:00Z,28.1910,-88.4960,48.2,1.2,278.0,99.0,'11111222,11111222,11144222' 
ADCP,ioos:station:wmo:42887:1,2011-08-03T07:40:00Z,28.1910,-88.4960,48.2,4.1,283.0,99.0,'11111222,11111222,11144222' 
ADCP,ioos:station:wmo:42887:1,2011-08-03T08:00:00Z,28.1910,-88.4960,48.2,3.7,292.0,99.0,'11111222,11111222,11144222' 
ADCP,ioos:station:wmo:42887:1,2011-08-03T08:20:00Z,28.1910,-88.4960,48.2,2.4,287.0,99.0,'11111222,11111222,11144222' 
ADCP,ioos:station:wmo:42887:1,2011-08-03T08:40:00Z,28.1910,-88.4960,48.2,5.2,291.0,99.0,'11111222,11111222,11144222' 
ADCP,ioos:station:wmo:42887:1,2011-08-03T09:00:00Z,28.1910,-88.4960,48.2,5.2,290.0,99.0,'11111222,11111222,11144222' 
ADCP,ioos:station:wmo:42887:1,2011-08-03T09:20:00Z,28.1910,-88.4960,48.2,5.5,301.0,99.0,'11111222,11111222,11144222' 
ADCP,ioos:station:wmo:42887:1,2011-08-03T09:40:00Z,28.1910,-88.4960,48.2,5.6,303.0,99.0,'11111222,11111222,11144222' 
ADCP,ioos:station:wmo:42887:1,2011-08-03T10:00:00Z,28.1910,-88.4960,48.2,5.2,302.0,99.0,'11111222,11111222,11144222' 
ADCP,ioos:station:wmo:42887:1,2011-08-03T10:20:00Z,28.1910,-88.4960,48.2,5.4,289.0,99.0,'11111222,11111222,11144222' 
ADCP,ioos:station:wmo:42887:1,2011-08-03T10:40:00Z,28.1910,-88.4960,48.2,5.6,300.0,99.0,'11111222,11111222,11144222' 
ADCP,ioos:station:wmo:42887:1,2011-08-03T11:00:00Z,28.1910,-88.4960,48.2,5.2,297.0,99.0,'11111222,11111222,11144222' 
ADCP,ioos:station:wmo:42887:1,2011-08-03T11:20:00Z,28.1910,-88.4960,48.2,5.2,299.0,99.0,'11111222,11111222,11144222' 
ADCP,ioos:station:wmo:42887:1,2011-08-03T11:40:00Z,28.1910,-88.4960,48.2,5.0,301.0,99.0,'11111222,11111222,11144222' 
ADCP,ioos:station:wmo:42887:1,2011-08-03T12:00:00Z,28.1910,-88.4960,48.2,6.2,303.0,99.0,'11111222,11111222,11144222' 
ADCP,ioos:station:wmo:42887:1,2011-08-03T12:20:00Z,28.1910,-88.4960,48.2,3.1,340.0,99.0,'11111222,11111222,11144222' 
ADCP,ioos:station:wmo:42887:1,2011-08-03T12:40:00Z,28.1910,-88.4960,48.2,3.5,305.0,99.0,'11111222,11111222,11144222' 
ADCP,ioos:station:wmo:42887:1,2011-08-03T13:00:00Z,28.1910,-88.4960,48.2,5.5,321.0,99.0,'11111222,11111222,11144222' 
ADCP,ioos:station:wmo:42887:1,2011-08-03T13:20:00Z,28.1910,-88.4960,48.2,5.5,320.0,99.0,'11111222,11111222,11144222' 
ADCP,ioos:station:wmo:42887:1,2011-08-03T13:40:00Z,28.1910,-88.4960,48.2,4.7,311.0,99.0,'11111222,11111222,11144222' 
ADCP,ioos:station:wmo:42887:1,2011-08-03T14:00:00Z,28.1910,-88.4960,48.2,5.4,307.0,99.0,'11111222,11111222,11144222' 
ADCP,ioos:station:wmo:42887:1,2011-08-03T14:20:00Z,28.1910,-88.4960,48.2,6.0,315.0,99.0,'11111222,11111222,11144222' 
ADCP,ioos:station:wmo:42887:1,2011-08-03T14:40:00Z,28.1910,-88.4960,48.2,5.8,316.0,99.0,'11111222,11111222,11144222' 
ADCP,ioos:station:wmo:42887:1,2011-08-03T15:00:00Z,28.1910,-88.4960,48.2,4.9,302.0,99.0,'11111222,11111222,11144222' 
ADCP,ioos:station:wmo:42887:1,2011-08-03T15:20:00Z,28.1910,-88.4960,48.2,4.2,317.0,99.0,'11111222,11111222,11144222' 
ADCP,ioos:station:wmo:42887:1,2011-08-03T15:40:00Z,28.1910,-88.4960,48.2,4.8,306.0,99.0,'11111222,11111222,11144222' 
ADCP,ioos:station:wmo:42887:1,2011-08-03T16:00:00Z,28.1910,-88.4960,48.2,5.2,340.0,99.0,'11111222,11111222,11144222' 
ADCP,ioos:station:wmo:42887:1,2011-08-03T16:20:00Z,28.1910,-88.4960,48.2,5.2,314.0,99.0,'11111222,11111222,11144222' 
ADCP,ioos:station:wmo:42887:1,2011-08-03T16:40:00Z,28.1910,-88.4960,48.2,4.0,356.0,99.0,'11111222,11111222,11144222' 
ADCP,ioos:station:wmo:42887:1,2011-08-03T17:00:00Z,28.1910,-88.4960,48.2,3.2,352.0,99.0,'11111222,11111222,11144222' 
ADCP,ioos:station:wmo:42887:1,2011-08-03T17:20:00Z,28.1910,-88.4960,48.2,4.9,334.0,99.0,'11111222,11111222,11144222' 
ADCP,ioos:station:wmo:42887:1,2011-08-03T17:40:00Z,28.1910,-88.4960,48.2,4.1,334.0,99.0,'11111222,11111222,11144222' 
ADCP,ioos:station:wmo:42887:1,2011-08-03T18:00:00Z,28.1910,-88.4960,48.2,4.1,337.0,99.0,'11111222,11111222,11144222' 
ADCP,ioos:station:wmo:42887:1,2011-08-03T18:20:00Z,28.1910,-88.4960,48.2,4.3,341.0,99.0,'11111222,11111222,11144222' 
ADCP,ioos:station:wmo:42887:1,2011-08-03T18:40:00Z,28.1910,-88.4960,48.2,4.0,346.0,99.0,'11111222,11111222,11144222' 
ADCP,ioos:station:wmo:42887:1,2011-08-03T19:00:00Z,28.1910,-88.4960,48.2,2.5,322.0,99.0,'11111222,11111222,11144222' 
ADCP,ioos:station:wmo:42887:1,2011-08-03T19:20:00Z,28.1910,-88.4960,48.2,1.6,352.0,99.0,'11111222,11111222,11144222' 
ADCP,ioos:station:wmo:42887:1,2011-08-03T19:40:00Z,28.1910,-88.4960,48.2,4.1,316.0,99.0,'11111222,11111222,11144222' 
ADCP,ioos:station:wmo:42887:1,2011-08-03T20:00:00Z,28.1910,-88.4960,48.2,4.7,308.0,99.0,'11111222,11111222,11144222' 
ADCP,ioos:station:wmo:42887:1,2011-08-03T20:20:00Z,28.1910,-88.4960,48.2,4.4,304.0,99.0,'11111222,11111222,11144222' 
ADCP,ioos:station:wmo:42887:1,2011-08-03T20:40:00Z,28.1910,-88.4960,48.2,6.1,299.0,99.0,'11111222,11111222,11144222' 
ADCP,ioos:station:wmo:42887:1,2011-08-03T21:00:00Z,28.1910,-88.4960,48.2,4.6,306.0,99.0,'11111222,11111222,11144222' 
ADCP,ioos:station:wmo:42887:1,2011-08-03T21:20:00Z,28.1910,-88.4960,48.2,4.6,299.0,99.0,'11111222,11111222,11144222' 
ADCP,ioos:station:wmo:42887:1,2011-08-03T21:40:00Z,28.1910,-88.4960,48.2,4.3,348.0,99.0,'11111222,11111222,11144222' 
ADCP,ioos:station:wmo:42887:1,2011-08-03T22:00:00Z,28.1910,-88.4960,48.2,3.7,355.0,99.0,'11111222,11111222,11144222' 
ADCP,ioos:station:wmo:42887:1,2011-08-03T22:20:00Z,28.1910,-88.4960,48.2,3.6,333.0,99.0,'11111222,11111222,11144222' 
ADCP,ioos:station:wmo:42887:1,2011-08-03T22:40:00Z,28.1910,-88.4960,48.2,3.6,333.0,99.0,'11111222,11111222,11144222' 
ADCP,ioos:station:wmo:42887:1,2011-08-03T23:20:00Z,28.1910,-88.4960,48.2,3.6,333.0,99.0,'11111222,11111222,11144222' 
ADCP,ioos:station:wmo:42887:1,2011-08-03T23:40:00Z,28.1910,-88.4960,48.2,3.6,333.0,99.0,'11111222,11111222,11144222' 
ADCP,ioos:station:wmo:42887:1,2011-08-04T00:00:00Z,28.1910,-88.4960,48.2,3.6,333.0,99.0,'11111222,11111222,11144222' 
ADCP,ioos:station:wmo:42887:1,2011-08-04T00:20:00Z,28.1910,-88.4960,48.2,3.6,333.0,99.0,'11111222,11111222,11144222' 
ADCP,ioos:station:wmo:42887:1,2011-08-04T00:40:00Z,28.1910,-88.4960,48.2,3.6,333.0,99.0,'11111222,11111222,11144222' 
ADCP,ioos:station:wmo:42887:1,2011-08-04T01:00:00Z,28.1910,-88.4960,48.2,3.6,333.0,99.0,'11111222,11111222,11144222' 
ADCP,ioos:station:wmo:42887:1,2011-08-04T01:20:00Z,28.1910,-88.4960,48.2,3.6,333.0,99.0,'11111222,11111222,11144222' 
ADCP,ioos:station:wmo:42887:1,2011-08-04T01:40:00Z,28.1910,-88.4960,48.2,3.6,333.0,99.0,'11111222,11111222,11144222' 